Skip Page Navigation
NASA JPL Caltech
NASA Logo - Jet Propulsion Laboratory + View the NASA Portal
+ Center for Near-Earth Object Studies
JPL Home Earth Solar System Stars & Galaxies Technology
JPL Solar System Dynamics
BODIES ORBITS EPHEMERIDES TOOLS PHYSICAL DATA DISCOVERY FAQ SITE MAP
IMPORTANT: The SSD Announcement email list is now available. Major changes are coming in the near future, including possible hostname and/or URL changes. To be notified of such changes, subscribe to this email list.

Please visit this page for more details.


JPL Small-Body Database Browser
Search: [ help ]  
243174 (2007 TY137)
Classification: Outer Main-belt Asteroid          SPK-ID: 2243174
Ephemeris | Orbit Diagram | Orbital Elements | Mission Design | Physical Parameters | Discovery Circumstances | Close-Approach Data ]

[ show orbit diagram ]
Orbital Elements at Epoch 2458600.5 (2019-Apr-27.0) TDB
Reference: JPL 13 (heliocentric ecliptic J2000)
 Element Value Uncertainty (1-sigma)   Units 
e .01378976249239482 7.4632e-08  
a 3.243911055154083 6.0713e-08 au
q 3.199178292157054 2.4149e-07 au
i 7.475190897869192 8.7628e-06 deg
node 193.3763759942939 5.4923e-05 deg
peri 211.8655305869524 0.00032445 deg
M 343.7739287510577 0.00032267 deg
tp 2458696.686187570068
(2019-Aug-01.18618757)
0.0019137 TDB
period 2134.036452445737
5.84
5.9911e-05
1.64e-07
d
yr
n .1686944005044608 4.7359e-09 deg/d
Q 3.288643818151112 6.155e-08 au
  Orbit Determination Parameters
   # obs. used (total)      149  
   data-arc span      8396 days (22.99 yr)  
   first obs. used      1995-09-18  
   last obs. used      2018-09-13  
   planetary ephem.      DE431  
   SB-pert. ephem.      SB431-N16  
   condition code      0  
   norm. resid. RMS      .62506  
   source      ORB  
   producer      Otto Matic  
   solution date      2018-Oct-04 09:31:19  

Additional Information
 Earth MOID = 2.2056 au 
 Jupiter MOID = 1.75251 au 
 T_jup = 3.170 
[ show covariance matrix ]

Ephemeris | Orbit Diagram | Orbital Elements | Mission Design | Physical Parameters | Discovery Circumstances | Close-Approach Data ]

Physical Parameter Table
Parameter Symbol Value Units Sigma Reference Notes
absolute magnitude H 15.8   n/a MPO454783  
diameter diameter 5.383 km 0.448 urn:nasa:pds:neowise_diameters_albedos::2.0[mainbelt] (http://adsabs.harvard.edu/abs/2011ApJ...741...68M)  
geometric albedo albedo 0.027   0.012 urn:nasa:pds:neowise_diameters_albedos::2.0[mainbelt] (http://adsabs.harvard.edu/abs/2011ApJ...741...68M)  

243174 (2007 TY137)          Discovered 2007-Oct-08 by Mt. Lemmon Survey at Mount Lemmon
Reference: 20100626/Numbers.arcLast Updated: 2010-06-28

[ show close-approach data ]
Alternate Designations
 2007 TY137 = 1995 SO19 = 2004 FD80 
Ephemeris | Orbit Diagram | Orbital Elements | Mission Design | Physical Parameters | Discovery Circumstances | Close-Approach Data ]
ABOUT SSD CREDITS/AWARDS PRIVACY/COPYRIGHT GLOSSARY LINKS
FirstGov 2019-Dec-16 08:21 UT
(server date/time)  
NASA Home Page
Site Manager:   Ryan S. Park
Webmaster  Alan B. Chamberlin